Regional Weather Roundup
Issued by NWS

Home | Current Version | Previous Version | Text Only | Print | Product List | Glossary Off
Versions: 1 2 3 4 5 6 7 8 9 10 11 12 13 14 15 16 17 18 19 20 21 22 23 24 25 26 27 28 29 30 31 32 33 34 35 36 37 38 39 40 41 42 43 44 45 46 47 48 49 50

000
ASUS43 KMKX 031000
RWRWI

WISCONSIN REGIONAL WEATHER ROUNDUP
NATIONAL WEATHER SERVICE MILWAUKEE/SULLIVAN WI
500 AM CDT SUN MAY 03 2015

NOTE: "FAIR" INDICATES FEW OR NO CLOUDS BELOW 12,000 FEET WITH NO
SIGNIFICANT WEATHER AND/OR OBSTRUCTIONS TO VISIBILITY.

WIZ001-002-006>008-014>016-023>028-031100-
NORTHWEST WISCONSIN

CITY           SKY/WX    TMP DP  RH WIND       PRES   REMARKS
SUPERIOR ARPT  CLOUDY    43  41  93 S6        29.71S
ASHLAND        MOCLDY    64  51  62 SW13G21   29.73R
HAYWARD        PTCLDY    61  49  64 SW10      29.78R
SIREN          MOCLDY    61  50  69 SW13G20   29.77R
CUMBERLAND     CLEAR     54  46  76 SW12      29.78F
RICE LAKE      CLEAR     55  47  75 S7        29.81S
CHETEK         CLEAR     57  49  75 S3        29.80R
LADYSMITH      CLEAR     57  49  77 S6        29.81S
EAU CLAIRE     CLEAR     59  48  67 S8        29.79S
MENOMONIE      CLEAR     59  49  68 S8        29.79F
NEW RICHMOND   PTCLDY    53  48  82 CALM      29.80R
OSCEOLA        PTCLDY    57  50  77 SW5       29.82R
$$

WIZ003>005-009-010-017-018-031100-
NORTH CENTRAL WISCONSIN

CITY           SKY/WX    TMP DP  RH WIND       PRES   REMARKS
MANITOWISH WTR CLEAR     57  50  76 SW7       29.79S
ARBOR VITAE    PTCLDY    57  49  75 S6        29.81S
WOODRUFF       PTCLDY    57  49  75 S6        29.81S
RHINELANDER    CLEAR     56  48  74 SW7       29.84R
EAGLE RIVER    CLEAR     58  47  66 S5        29.82R
LAND O LAKES   CLEAR     57  48  72 SW5       29.81S
PHILLIPS       MOCLDY    57  49  74 SW7       29.80S
TOMAHAWK       CLEAR     52  47  82 CALM      29.84R
MEDFORD        CLEAR     55  49  79 S9        29.83S
MERRILL        CLEAR     56  49  79 SW3       29.84S
$$

WIZ029-030-035-036-043>047-031100-
CENTRAL WISCONSIN

CITY           SKY/WX    TMP DP  RH WIND       PRES   REMARKS
WAUSAU         CLEAR     57  49  74 S10       29.83S
MOSINEE        CLEAR     52  48  87 S8        29.87S
MARSHFIELD     CLEAR     50  46  86 S8        29.84F
STEVENS POINT  CLEAR     51  46  81 S6        29.87S
WAUPACA        CLEAR     54  46  74 S5        29.88S
WAUTOMA        NOT AVBL
WISC RAPIDS    CLEAR     53  46  77 S5        29.87S
CAMP DOUGLAS   NOT AVBL
$$

WIZ011>013-019>022-031-037>040-048>050-031100-
NORTHEAST WISCONSIN

CITY           SKY/WX    TMP DP  RH WIND       PRES   REMARKS
ANTIGO         CLEAR     51  46  82 SW6       29.86S
SHAWANO        CLEAR     57  45  62 CALM      29.86S
OCONTO         CLEAR     50  44  80 S3        29.85F
STURGEON BAY   CLEAR     57  45  62 S8        29.89S
GREEN BAY      CLEAR     56  47  71 S6        29.88S
MANITOWOC      NOT AVBL
APPLETON       CLEAR     54  45  71 S7        29.89S
CLINTONVILLE   CLEAR     52  43  71 S3        29.87S
OSHKOSH        PTCLDY    54  46  74 S7        29.89S
$$

WIZ032>034-041-042-053>061-031100-
SOUTHWEST WISCONSIN

CITY           SKY/WX    TMP DP  RH WIND       PRES   REMARKS
LA CROSSE      PTCLDY    59  52  77 SE9       29.83F
SPARTA         MOCLDY    51  46  85 CALM      29.86F
VIROQUA        PTCLDY    57  49  75 S10       29.86F
BOSCOBEL       PTCLDY    62  49  62 SW5       29.87F
PRAIRIE DU CHI MOCLDY    61  47  59 SE7       29.86S
PLATTEVILLE    CLOUDY    58  50  75 S12G17    29.91S
$$

WIZ056-057-062-063-064-067-068-031100-
SOUTH CENTRAL WISCONSIN

CITY           SKY/WX    TMP DP  RH WIND       PRES   REMARKS
REEDSBURG      MOCLDY    58  49  74 S8        29.88S
BARABOO/DELLS  NOT AVBL
LONE ROCK      NOT AVBL
MINERAL POINT  MOCLDY    59  50  72 S7        29.91S
MADISON        PTCLDY    59  48  67 S6        29.91S
MIDDLETON      MOCLDY    60  46  61 SW6       29.91S
WATERTOWN      CLOUDY    56  48  73 S3        29.92S
MONROE         MOCLDY    57  48  72 S14       29.92S
JANESVILLE     CLOUDY    61  43  51 S6        29.93S
$$

WIZ051-052-058>065-066-070>072-031100-
SOUTHEAST WISCONSIN

CITY           SKY/WX    TMP DP  RH WIND       PRES   REMARKS
MILWAUKEE      MOCLDY    59  40  49 SW8       29.94R
WAUKESHA       CLOUDY    55  41  58 S5        29.95S
MILWAUKEE/TIMM MOCLDY    57  41  54 SW3       29.94S
RACINE         CLOUDY    58  41  53 SW7       29.97R
BURLINGTON     CLOUDY    52  43  72 CALM      29.95R
KENOSHA        CLOUDY    55  44  66 SW5       29.96R
FOND DU LAC    MOCLDY    56  47  71 S7        29.91R
SHEBOYGAN      PTCLDY    54  45  71 SW6       29.91S
WEST BEND      PTCLDY    55  43  62 S3        29.92S
JUNEAU         MOCLDY    54  46  74 S6        29.93S
$$

LSZ147-162-031100-
LAKE SUPERIOR

STATION/POSITION TIME  TEMP    WIND        PRES    WAVE
                       AIR SEA DIR/SP/G            HT/PER
                 (UTC) (F)     (DEG/KT/KT) (MB)    (FT/S)
W MID LAKE BUOY  0850   44 35  200/ 14/ 16 1005.6F   0
DEVILS ISLAND    0900   59     210/  9/ 10 1005.0F
PORT WING        0900   41     180/  3/  4 1005.8
SAXON HARBOR     0940   65     190/ 13/ 19 1005.8S
$$

LMZ867-665-643>646-031100-
LAKE MICHIGAN

STATION/POSITION TIME  TEMP    WIND        PRES    WAVE
                       AIR SEA DIR/SP/G            HT/PER
                 (UTC) (F)     (DEG/KT/KT) (MB)    (FT/S)
CHAMBERS ISLAND  0900   59     170/  5/ 13 1011.2S
NORTHPORT PIER   0900   59     190/  3/ 10 1010.8S
SISTER BAY       0902   64     220/ 13/ 16   N/A
KEWAUNEE LAKESHO 0900   58     260/  9/ 10 1011.2R
SHEBOYGAN LAKESH 0900   59     220/  6/  6 1013.1S
PORT WASHINGTON  0940   53     170/  3/  4 1013.9S
ATWATER BUOY     0900   57     220/  8/ 10 1014.8F
MILWAUKEE LAKESH 0900   62     230/  8/  9   N/A
KENOSHA   LAKESH 0900   61     210/  6/  8 1014.2S
$$

TC  - TEMPERATURE IN CELSIUS
VSB - VISIBILITY IN STATUTE MILES
WCI - WIND CHILL INDEX
HX  - HEAT INDEX




USA.gov is the U.S. government's official web portal to all federal, state and local government web resources and services.